Location: Newark
(49.8753°N, 23.0797°E)
Time: 18:09:17
(UTC+00:00)

X-37B - Pass Details

Date: 24 June 2021
Orbit: 383 x 392 km, 45.0° (Epoch: 01 July)

Event Time Altitude Azimuth Distance (km) Brightness Sun altitude
Rises 19:34:41 0° 223° (SW) 2,249 4.4 -7.0°
Reaches altitude 10° 19:37:08 10° 204° (SSW) 1,398 3.1 -7.3°
Maximum altitude 19:39:23 18° 158° (SSE) 1,012 2.1 -7.5°
Drops below altitude 10° 19:41:39 10° 112° (ESE) 1,402 2.9 -7.8°
Enters shadow 19:42:44 - 101° (ESE) 1,750 3.4 -7.9°
